Weather History for Piney Island, NC

Change the Weather History Date:

Tuesday, April 24, 2012

  Actual Average (KMRH) Record (KMRH)
Temperature  
Mean Temperature 57 °F -  
Max Temperature 66 °F 74 °F 88 °F (1985)
Min Temperature 48 °F 55 °F 37 °F (1986)
Degree Days  
Heating Degree Days 8    
Growing Degree Days 7 (Base 50)    
Moisture  
Dew Point 32 °F    
Average Humidity 39    
Maximum Humidity 71    
Minimum Humidity 21    
Precipitation  
Precipitation 0.00 in - - ()
Sea Level Pressure  
Sea Level Pressure 29.76 in    
Wind  
Wind Speed 12 mph (WSW)    
Max Wind Speed 24 mph    
Max Gust Speed 32 mph    
Visibility 10 miles    
Events      
Averages and records for this station are not official NWS values.
T = Trace of Precipitation, MM = Missing Value Source: NWS Daily Summary

Daily Weather History Graph

Daily Weather History Graph

Search for Another Location

Airport:

Trip Planner

Search our weather history database for the weather conditions in past years. The results will help you decide how hot, cold, wet, or windy it might be!

Date:

Astronomy

Apr. 24, 2012 Rise Set
Actual Time 6:22 AM EDT 7:46 PM EDT
Civil Twilight 5:55 AM EDT 8:12 PM EDT
Nautical Twilight 5:23 AM EDT 8:44 PM EDT
Astronomical Twilight 4:50 AM EDT 9:18 PM EDT
Moon 8:21 AM EDT 10:58 PM EDT
Length of Visible Light 14h 17m
Length of Day
13h 23m
Waxing Crescent, 10% of the Moon is Illuminated
Apr 24
Waxing Crescent
Apr 29
First Quarter
May 5
Full
May 12
Last Quarter
May 20
New

Hourly Weather History & Observations

Time (EDT) Temp. Dew Point Humidity Pressure Visibility Wind Dir Wind Speed Gust Speed Precip Events Conditions
12:56 AM 48.0 °F 39.0 °F 71% 29.73 in 10.0 mi SSW 6.9 mph - N/A   Clear
4:56 AM 50.0 °F 37.9 °F 63% 29.72 in 10.0 mi WSW 10.4 mph - N/A   Clear
5:56 AM 50.0 °F 37.9 °F 63% 29.73 in 10.0 mi WSW 8.1 mph - N/A   Clear
7:56 AM 55.0 °F 37.9 °F 53% 29.77 in 10.0 mi WSW 10.4 mph - N/A   Clear
8:56 AM 57.9 °F 36.0 °F 44% 29.77 in 10.0 mi West 16.1 mph - N/A   Clear
9:56 AM 59.0 °F 35.1 °F 41% 29.78 in 10.0 mi West 16.1 mph 23.0 mph N/A   Clear
10:56 AM 61.0 °F 34.0 °F 36% 29.78 in 10.0 mi West 17.3 mph 24.2 mph N/A   Clear
11:56 AM 63.0 °F 30.9 °F 30% 29.77 in 10.0 mi West 18.4 mph 27.6 mph N/A   Partly Cloudy
12:56 PM 64.0 °F 26.1 °F 24% 29.75 in 10.0 mi WSW 15.0 mph 32.2 mph N/A   Clear
1:56 PM 64.9 °F 27.0 °F 24% 29.73 in 10.0 mi West 24.2 mph 29.9 mph N/A   Clear
2:56 PM 66.9 °F 28.0 °F 23% 29.72 in 10.0 mi West 20.7 mph 28.8 mph N/A   Clear
3:56 PM 66.9 °F 26.1 °F 21% 29.71 in 10.0 mi West 19.6 mph 32.2 mph N/A   Partly Cloudy
4:56 PM 66.0 °F 28.9 °F 25% 29.72 in 10.0 mi West 18.4 mph 29.9 mph N/A   Partly Cloudy
5:56 PM 66.0 °F 27.0 °F 23% 29.73 in 10.0 mi WNW 18.4 mph 27.6 mph N/A   Clear
6:56 PM 64.0 °F 25.0 °F 23% 29.75 in 10.0 mi West 15.0 mph 24.2 mph N/A   Clear
7:56 PM 60.1 °F 30.9 °F 33% 29.77 in 10.0 mi WSW 6.9 mph - N/A   Clear
8:56 PM 57.0 °F 34.0 °F 42% 29.79 in 10.0 mi SW 8.1 mph - N/A   Clear
9:56 PM 55.0 °F 35.1 °F 47% 29.81 in 10.0 mi SW 6.9 mph - N/A   Clear
10:56 PM 54.0 °F 35.1 °F 49% 29.82 in 10.0 mi SW 6.9 mph - N/A   Clear
11:56 PM 53.1 °F 34.0 °F 48% 29.84 in 10.0 mi SW 6.9 mph - N/A   Clear